STARLINK-35464 (65881 NORAD) Tracking and Keplerian Element Data

This shows tracking and keplerian element data for the satellite.

Feedback or suggestion? Click here.




ElementValue
Catalog65881
NameSTARLINK-35464
Epoch Orbit1202
Epoch Day354.15117138
Epoch Year2025
RAAN303.9225
Inclination53.1611
Eccentricity6.83E-05
Argument of Perigee42.0522
Mean Anonmoly318.0531
Mean Motion15.30208879
Decay Rate0.00020443
L11 65881U 25223AD 25354.15117138 .00020443 00000+0 70024-3 0 9996
L22 65881 53.1611 303.9225 0000683 42.0522 318.0531 15.30208879 12022



Live tracking and technical data element details for STARLINK-35464 (NORAD 65881). STARLINK-35464 can be tracked NOW for your location showing map with azimuth and elevation plus other details from your city location.







IsCatalogInMostPopularTable: catalog: 65881, numindb: 9
Update: records affected: 1



GetName: 65881 STARLINK-35464

Hit Count: updated at: Sat, 11 Apr 2026 20:08:18 GMT